EW9274 Weather Reports


time (UTC)temp
C
wind
direction
speed
KPH
gust
KPH
rain 1hr
cm
rain 24hr
cm
rain mn
cm
humidity
%
barometer
mb
20260906131014 21 86 1.6 6.4 0.00 0.00 0.00 83 1020.7
20260906130513 20 101 3.2 6.4 0.00 0.00 0.00 84 1020.7
20260906130028 20 5 0.0 3.2 0.00 0.00 0.00 85 1020.6
20260906125520 20 350 0.0 4.8 0.00 0.00 0.00 86 1020.6
20260906125020 20 11 1.6 4.8 0.00 0.00 0.00 86 1020.4
20260906124516 19 36 0.0 4.8 0.00 0.00 0.00 87 1020.4
20260906124013 19 55 1.6 4.8 0.00 0.00 0.00 87 1020.3
20260906123516 19 81 3.2 4.8 0.00 0.00 0.00 87 1020.2
20260906123016 19 116 1.6 4.8 0.00 0.00 0.00 87 1020.2
20260906122512 19 74 0.0 3.2 0.00 0.00 0.00 88 1020.2
20260906122018 18 105 0.0 3.2 0.00 0.00 0.00 89 1020.2
20260906121517 18 69 0.0 3.2 0.00 0.00 0.00 89 1020.1
20260906121011 18 85 0.0 3.2 0.00 0.00 0.00 90 1020.1
20260906120516 18 103 0.0 3.2 0.00 0.00 0.00 1020.1
20260906120020 18 68 0.0 3.2 0.00 0.00 0.00 91 1020.1
20260906115515 18 92 0.0 3.2 0.00 0.00 0.00 91 1019.9
20260906115015 18 61 1.6 3.2 0.00 0.00 0.00 91 1019.7
20260906114524 18 73 1.6 3.2 0.00 0.00 0.00 91 1019.7
20260906114018 18 90 0.0 3.2 0.00 0.00 0.00 91 1019.7
20260906113514 18 65 0.0 3.2 0.00 0.00 0.00 91 1019.6
20260906113036 18 51 1.6 4.8 0.00 0.00 0.00 90 1019.5
20260906112513 18 76 1.6 4.8 0.00 0.00 0.00 90 1019.4
20260906112020 18 48 1.6 3.2 0.00 0.00 0.00 90 1019.4
20260906111525 18 86 0.0 3.2 0.00 0.00 0.00 90 1019.5
20260906111015 18 134 0.0 6.4 0.00 0.00 0.00 90 1019.5
20260906110516 18 74 0.0 6.4 0.00 0.00 0.00 90 1019.4
20260906110027 18 91 3.2 6.4 0.00 0.00 0.00 90 1019.3
20260906105518 18 74 3.2 6.4 0.00 0.00 0.00 90 1019.3
20260906105007 18 88 1.6 8.0 0.00 0.00 0.00 90 1019.3
20260906104529 18 54 4.8 8.0 0.00 0.00 0.00 90 1019.2
20260906104014 18 13 4.8 8.0 0.00 0.00 0.00 90 1019.2
20260906103507 18 65 3.2 8.0 0.00 0.00 0.00 90 1019.2
20260906103004 18 73 4.8 8.0 0.00 0.00 0.00 89 1019.3
20260906102502 18 63 4.8 6.4 0.00 0.00 0.00 89 1019.3
20260906102010 18 90 3.2 8.0 0.00 0.00 0.00 89 1019.3
20260906101503 18 78 4.8 8.0 0.00 0.00 0.00 89 1019.2
20260906101006 18 36 4.8 8.0 0.00 0.00 0.00 89 1019.1
20260906100510 18 74 4.8 8.0 0.00 0.00 0.00 1019.2
20260906100004 18 63 3.2 6.4 0.00 0.00 0.00 88 1019.2
20260906095503 18 62 3.2 6.4 0.00 0.00 0.00 88 1019.1
20260906095011 18 68 1.6 4.8 0.00 0.00 0.00 89 1019.1
20260906094512 18 71 0.0 3.2 0.00 0.00 0.00 89 1019.2
20260906094004 18 40 0.0 3.2 0.00 0.00 0.00 88 1019.2
20260906093510 18 360 1.6 3.2 0.00 0.00 0.00 88 1019.1
20260906093003 18 67 0.0 3.2 0.00 0.00 0.00 88 1019.0
20260906092513 18 58 1.6 3.2 0.00 0.00 0.00 88 1018.9
20260906092014 18 69 0.0 3.2 0.00 0.00 0.00 88 1018.9
20260906091519 18 104 0.0 3.2 0.00 0.00 0.00 87 1018.9
20260906091007 18 39 0.0 3.2 0.00 0.00 0.00 87 1018.9
20260906090519 18 89 0.0 3.2 0.00 0.00 0.00 87 1018.9
20260906090005 18 103 1.6 3.2 0.00 0.00 0.00 87 1019.0
20260906085518 18 352 1.6 6.4 0.00 0.00 0.00 87 1019.1
20260906085016 18 57 1.6 6.4 0.00 0.00 0.00 87 1018.9
20260906084516 18 61 3.2 4.8 0.00 0.00 0.00 1018.9
20260906084010 18 15 0.0 4.8 0.00 0.00 0.00 86 1018.8
20260906083518 18 337 1.6 4.8 0.00 0.00 0.00 86 1018.9
20260906083018 19 23 1.6 4.8 0.00 0.00 0.00 86 1018.9
20260906082511 19 99 0.0 4.8 0.00 0.00 0.00 86 1018.8
20260906082015 19 91 1.6 4.8 0.00 0.00 0.00 86 1018.8
20260906081528 18 63 0.0 4.8 0.00 0.00 0.00 87 1018.8
20260906081011 18 80 0.0 4.8 0.00 0.00 0.00 87 1018.8
20260906080506 18 25 3.2 4.8 0.00 0.00 0.00 87 1018.9
20260906080013 18 47 0.0 4.8 0.00 0.00 0.00 87 1018.9
20260906075509 18 62 0.0 4.8 0.00 0.00 0.00 87 1018.9
20260906075004 18 65 3.2 4.8 0.00 0.00 0.00 87 1018.9
20260906074513 18 78 1.6 3.2 0.00 0.00 0.00 87 1018.8
20260906074010 18 80 0.0 3.2 0.00 0.00 0.00 87 1018.8
20260906073502 18 344 0.0 3.2 0.00 0.00 0.00 87 1018.8
20260906073015 18 333 0.0 3.2 0.00 0.00 0.00 87 1018.8
20260906072514 18 69 0.0 3.2 0.00 0.00 0.00 88 1018.8
20260906072004 18 14 1.6 3.2 0.00 0.00 0.00 87 1018.7
20260906071519 18 25 0.0 3.2 0.00 0.00 0.00 88 1018.7
20260906071012 18 17 0.0 3.2 0.00 0.00 0.00 87 1018.7
20260906070505 18 99 0.0 3.2 0.00 0.00 0.00 88 1018.6
20260906070018 18 90 0.0 3.2 0.00 0.00 0.00 88 1018.7
20260906065513 18 116 0.0 3.2 0.00 0.00 0.00 1018.7
20260906065006 18 115 0.0 3.2 0.00 0.00 0.00 88 1018.7
20260906064518 18 65 1.6 3.2 0.00 0.00 0.00 88 1018.8
20260906064015 18 73 0.0 3.2 0.00 0.00 0.00 88 1018.8
20260906063504 18 26 0.0 3.2 0.00 0.00 0.00 88 1018.8
20260906063023 18 94 0.0 3.2 0.00 0.00 0.00 88 1018.8
20260906062514 18 96 0.0 3.2 0.00 0.00 0.00 88 1018.8
20260906062005 18 214 0.0 3.2 0.00 0.00 0.00 88 1018.8
20260906061527 18 10 1.6 3.2 0.00 0.00 0.00 88 1018.8
20260906061015 18 53 1.6 3.2 0.00 0.00 0.00 88 1018.8
20260906060508 18 123 0.0 3.2 0.00 0.00 0.00 88 1018.8
20260906060028 18 73 0.0 3.2 0.00 0.00 0.00 88 1018.7
20260906055517 18 360 0.0 3.2 0.00 0.00 0.00 88 1018.8
20260906055007 18 341 0.0 3.2 0.00 0.00 0.00 88 1018.7
20260906054527 18 352 0.0 3.2 0.00 0.00 0.00 88 1018.7
20260906054018 18 49 0.0 4.8 0.00 0.00 0.00 88 1018.7
20260906053507 18 344 3.2 4.8 0.00 0.00 0.00 88 1018.8
20260906053037 18 305 0.0 6.4 0.00 0.00 0.00 88 1018.9
20260906052516 18 69 0.0 6.4 0.00 0.00 0.00 88 1018.8
20260906052008 18 84 3.2 4.8 0.00 0.00 0.00 87 1018.7
20260906051534 18 49 3.2 6.4 0.00 0.00 0.00 87 1018.7
20260906051016 18 81 3.2 8.0 0.00 0.00 0.00 87 1018.6
20260906050509 18 71 3.2 8.0 0.00 0.00 0.00 87 1018.5
20260906050052 18 48 3.2 6.4 0.00 0.00 0.00 87 1018.6
20260906045504 18 129 1.6 6.4 0.00 0.00 0.00 87 1018.6
20260906045008 18 87 3.2 6.4 0.00 0.00 0.00 87 1018.6
20260906044530 18 59 4.8 8.0 0.00 0.00 0.00 87 1018.6
20260906044007 18 33 3.2 8.0 0.00 0.00 0.00 87 1018.6
20260906043509 18 46 3.2 8.0 0.00 0.00 0.00 87 1018.6
20260906043008 19 61 1.6 6.4 0.00 0.00 0.00 86 1018.5
20260906042507 19 55 3.2 6.4 0.00 0.00 0.00 86 1018.3
20260906042011 19 69 3.2 6.4 0.00 0.00 0.00 86 1018.2
20260906041504 19 67 3.2 8.0 0.00 0.00 0.00 1018.2
20260906041008 19 80 4.8 11.3 0.00 0.00 0.00 85 1018.1
20260906040512 19 71 4.8 11.3 0.00 0.00 0.00 85 1018.0
20260906040006 19 51 6.4 9.7 0.00 0.00 0.00 85 1018.0
20260906035509 19 82 4.8 9.7 0.00 0.00 0.00 84 1018.2
20260906035014 19 56 6.4 9.7 0.00 0.00 0.00 84 1018.2
20260906034510 19 68 6.4 11.3 0.00 0.00 0.00 84 1018.2
20260906034019 19 57 4.8 11.3 0.00 0.00 0.00 83 1018.1
20260906033511 20 56 3.2 11.3 0.00 0.00 0.00 82 1018.1
20260906033008 20 94 4.8 8.0 0.00 0.00 0.00 82 1018.1
20260906032509 20 65 4.8 12.9 0.00 0.00 0.00 81 1018.2
20260906032015 20 65 4.8 12.9 0.00 0.00 0.00 80 1018.2
20260906031514 20 49 6.4 12.9 0.00 0.00 0.00 79 1018.1
20260906031009 20 26 4.8 12.9 0.00 0.00 0.00 79 1018.1
20260906030517 20 61 6.4 12.9 0.00 0.00 0.00 79 1018.1
20260906030011 20 104 4.8 16.1 0.00 0.00 0.00 79 1018.0
20260906025512 20 70 4.8 16.1 0.00 0.00 0.00 80 1018.1
20260906025017 20 46 9.7 16.1 0.00 0.00 0.00 80 1018.1
20260906024512 20 65 4.8 14.5 0.00 0.00 0.00 80 1018.1
20260906024010 20 71 8.0 14.5 0.00 0.00 0.00 81 1018.0
20260906023516 20 74 6.4 14.5 0.00 0.00 0.00 81 1018.0
20260906023018 20 32 8.0 14.5 0.00 0.00 0.00 81 1017.9
20260906022511 20 57 4.8 16.1 0.00 0.00 0.00 82 1017.8
20260906022015 20 44 9.7 16.1 0.00 0.00 0.00 83 1017.7
20260906021516 21 66 6.4 14.5 0.00 0.00 0.00 83 1017.7
20260906021014 21 53 6.4 16.1 0.00 0.00 0.00 83 1017.7
20260906020504 21 77 8.0 16.1 0.00 0.00 0.00 83 1017.7
20260906020018 21 73 6.4 14.5 0.00 0.00 0.00 83 1017.7
20260906015514 21 73 3.2 9.7 0.00 0.00 0.00 83 1017.7
20260906015003 21 62 6.4 11.3 0.00 0.00 0.00 82 1017.6
20260906014518 21 36 4.8 12.9 0.00 0.00 0.00 82 1017.7
20260906014013 21 41 8.0 14.5 0.00 0.00 0.00 81 1017.6
20260906013506 21 47 8.0 14.5 0.00 0.00 0.00 82 1017.7
20260906013021 21 67 8.0 14.5 0.00 0.00 0.00 82 1017.7
20260906012513 21 37 4.8 12.9 0.00 0.00 0.00 82 1017.7
20260906012010 21 44 4.8 12.9 0.00 0.00 0.00 83 1017.8
20260906011526 21 87 3.2 11.3 0.00 0.00 0.00 84 1017.7
20260906011013 21 54 6.4 12.9 0.00 0.00 0.00 85 1017.8
20260906010511 21 42 6.4 12.9 0.00 0.00 0.00 85 1017.8
20260906010023 21 84 4.8 8.0 0.00 0.00 0.00 86 1017.8
20260906005519 21 88 3.2 11.3 0.00 0.00 0.00 86 1017.9
20260906005009 21 67 3.2 11.3 0.00 0.00 0.00 86 1017.9
20260906004525 21 34 4.8 9.7 0.00 0.00 0.00 86 1017.7
20260906004017 21 88 4.8 12.9 0.00 0.00 0.00 86 1017.6
20260906003509 21 19 6.4 12.9 0.00 0.00 0.00 86 1017.5
20260906003030 21 86 6.4 16.1 0.00 0.00 0.00 85 1017.5
20260906002523 21 63 8.0 16.1 0.00 0.00 0.00 85 1017.7
20260906002008 21 63 4.8 16.1 0.00 0.00 0.00 85 1017.7
20260906001536 21 56 6.4 16.1 0.00 0.00 0.00 85 1017.7
20260906001017 21 33 8.0 14.5 0.00 0.00 0.00 85 1017.6
20260906000509 21 59 8.0 16.1 0.00 0.00 0.00 84 1017.6
20260906000031 21 71 9.7 16.1 0.00 0.00 0.00 84 1017.6
20260905235515 21 77 8.0 16.1 0.00 0.00 0.00 84 1017.5
20260905235009 21 79 8.0 19.3 0.00 0.00 0.00 83 1017.5
20260905234528 22 93 9.7 19.3 0.00 0.00 0.00 82 1017.6
20260905234018 22 47 4.8 19.3 0.00 0.00 0.00 82 1017.6
20260905233510 22 351 6.4 20.9 0.00 0.00 0.00 82 1017.6
20260905233032 22 63 8.0 20.9 0.00 0.00 0.00 82 1017.7
20260905232521 22 117 11.3 17.7 0.00 0.00 0.00 82 1017.6
20260905232012 22 92 6.4 14.5 0.00 0.00 0.00 82 1017.7
20260905231530 22 144 4.8 19.3 0.00 0.00 0.00 83 1017.5
20260905231006 22 24 8.0 19.3 0.00 0.00 0.00 82 1017.6
20260905230513 22 65 6.4 19.3 0.00 0.00 0.00 82 1017.6
20260905230033 22 57 6.4 17.7 0.00 0.00 0.00 82 1017.5
20260905225512 22 38 11.3 17.7 0.00 0.00 0.00 82 1017.4
20260905225014 22 147 11.3 16.1 0.00 0.00 0.00 82 1017.3
20260905224533 22 92 6.4 19.3 0.00 0.00 0.00 82 1017.3
20260905224005 22 73 8.0 19.3 0.00 0.00 0.00 82 1017.5
20260905223515 22 77 11.3 17.7 0.00 0.00 0.00 81 1017.5
20260905223036 22 34 4.8 16.1 0.00 0.00 0.00 82 1017.4
20260905222511 22 102 8.0 16.1 0.00 0.00 0.00 82 1017.4
20260905222019 23 65 9.7 16.1 0.00 0.00 0.00 81 1017.3
20260905221531 23 55 6.4 17.7 0.00 0.00 0.00 81 1017.2
20260905221008 23 51 11.3 19.3 0.00 0.00 0.00 80 1017.1
20260905220515 23 101 12.9 19.3 0.00 0.00 0.00 79 1017.1
20260905220035 23 68 8.0 19.3 0.00 0.00 0.00 78 1017.0
20260905215519 23 67 11.3 19.3 0.00 0.00 0.00 78 1016.9
20260905215017 24 51 3.2 12.9 0.00 0.00 0.00 77 1016.8
20260905214533 23 242 3.2 22.5 0.00 0.00 0.00 77 1016.7
20260905214016 23 182 4.8 22.5 0.00 0.00 0.00 78 1016.7
20260905213518 23 50 16.1 22.5 0.00 0.00 0.00 76 1016.6
20260905213033 24 20 9.7 22.5 0.00 0.00 0.00 76 1016.6
20260905212514 25 79 12.9 22.5 0.00 0.00 0.00 75 1016.6
20260905212018 25 92 6.4 20.9 0.00 0.00 0.00 75 1016.5
20260905211534 25 61 12.9 20.9 0.00 0.00 0.00 74 1016.6
20260905211014 25 55 12.9 24.1 0.00 0.00 0.00 73 1016.5
20260905210519 25 34 12.9 22.5 0.00 0.00 0.00 72 1016.7
20260905210043 25 37 6.4 20.9 0.00 0.00 0.00 73 1016.6
20260905205513 25 55 9.7 17.7 0.00 0.00 0.00 73 1016.5
20260905205016 25 338 8.0 19.3 0.00 0.00 0.00 74 1016.7
20260905204537 25 332 9.7 17.7 0.00 0.00 0.00 73 1016.9
20260905204013 25 262 6.4 17.7 0.00 0.00 0.00 73 1016.8
20260905203514 25 75 8.0 16.1 0.00 0.00 0.00 74 1016.8
20260905203032 25 101 9.7 20.9 0.00 0.00 0.00 75 1016.8
20260905202515 25 111 9.7 20.9 0.00 0.00 0.00 73 1016.9
20260905202017 26 69 11.3 22.5 0.00 0.00 0.00 71 1016.9
20260905201527 25 46 9.7 22.5 0.00 0.00 0.00 74 1016.8
20260905201014 25 67 9.7 22.5 0.00 0.00 0.00 73 1016.9
20260905200517 25 78 11.3 22.5 0.00 0.00 0.00 73 1016.9
20260905200038 26 90 8.0 17.7 0.00 0.00 0.00 73 1016.9
20260905195513 25 186 6.4 19.3 0.00 0.00 0.00 74 1017.0
20260905195020 25 136 4.8 19.3 0.00 0.00 0.00 76 1017.0
20260905194535 25 99 9.7 20.9 0.00 0.00 0.00 76 1016.9
20260905194014 25 63 12.9 22.5 0.00 0.00 0.00 77 1017.0
20260905193519 25 59 8.0 22.5 0.00 0.00 0.00 76 1017.0
20260905193030 25 39 8.0 20.9 0.00 0.00 0.00 75 1016.9
20260905192520 25 301 9.7 19.3 0.00 0.00 0.00 78 1016.9
20260905192019 26 50 11.3 20.9 0.00 0.00 0.00 74 1016.8
20260905191507 27 52 12.9 20.9 0.00 0.00 0.00 70 1016.7
20260905191003 27 59 6.4 17.7 0.00 0.00 0.00 69 1016.7
20260905190505 27 234 4.8 12.9 0.00 0.00 0.00 69 1016.7
20260905190012 27 256 4.8 11.3 0.00 0.00 0.00 70 1016.8
20260905185503 26 46 3.2 14.5 0.00 0.00 0.00 71 1016.8
20260905185004 26 352 4.8 14.5 0.00 0.00 0.00 69 1017.0
20260905184515 26 158 3.2 14.5 0.00 0.00 0.00 70 1016.9
20260905184004 26 12 3.2 14.5 0.00 0.00 0.00 70 1016.8
20260905183504 26 326 4.8 14.5 0.00 0.00 0.00 69 1016.9
20260905183014 26 62 4.8 16.1 0.00 0.00 0.00 69 1016.9
20260905182504 26 9 4.8 17.7 0.00 0.00 0.00 70 1017.0
20260905182004 26 352 6.4 17.7 0.00 0.00 0.00 69 1017.0
20260905181513 26 281 6.4 16.1 0.00 0.00 0.00 69 1016.9
20260905181005 26 335 4.8 16.1 0.00 0.00 0.00 70 1016.9
20260905180505 26 46 3.2 16.1 0.00 0.00 0.00 70 1016.9
20260905180010 26 16 4.8 16.1 0.00 0.00 0.00 71 1016.8
20260905175505 26 96 4.8 16.1 0.00 0.00 0.00 72 1017.0
20260905175003 26 69 4.8 16.1 0.00 0.00 0.00 71 1016.9
20260905174526 26 34 6.4 14.5 0.00 0.00 0.00 73 1016.7
20260905174005 26 38 8.0 12.9 0.00 0.00 0.00 72 1016.7
20260905173507 25 132 4.8 11.3 0.00 0.00 0.00 74 1016.9
20260905173008 26 58 4.8 12.9 0.00 0.00 0.00 72 1017.0
20260905172504 26 84 4.8 12.9 0.00 0.00 0.00 73 1017.0
20260905172007 26 61 3.2 16.1 0.00 0.00 0.00 72 1017.0
20260905171508 26 40 3.2 16.1 0.00 0.00 0.00 74 1016.9
20260905171007 25 101 3.2 11.3 0.00 0.00 0.00 75 1016.8
20260905170504 25 9 3.2 14.5 0.00 0.00 0.00 76 1016.9
20260905170010 25 15 3.2 12.9 0.00 0.00 0.00 75 1017.0
20260905165506 25 17 1.6 9.7 0.00 0.00 0.00 74 1017.0
20260905165006 25 271 1.6 9.7 0.00 0.00 0.00 74 1017.0
20260905164512 25 83 3.2 11.3 0.00 0.00 0.00 75 1017.1
20260905164005 25 85 4.8 11.3 0.00 0.00 0.00 78 1017.1
20260905163504 25 74 3.2 9.7 0.00 0.00 0.00 77 1017.2
20260905163014 25 148 4.8 11.3 0.00 0.00 0.00 76 1017.1
20260905162506 25 88 4.8 11.3 0.00 0.00 0.00 76 1017.0
20260905162006 25 13 6.4 12.9 0.00 0.00 0.00 77 1017.0
20260905161514 25 64 1.6 12.9 0.00 0.00 0.00 78 1017.0
20260905161007 24 90 3.2 12.9 0.00 0.00 0.00 79 1017.0
20260905160507 24 65 3.2 12.9 0.00 0.00 0.00 79 1017.0
20260905160027 25 350 3.2 8.0 0.00 0.00 0.00 78 1017.0
20260905155508 25 33 1.6 9.7 0.00 0.00 0.00 79 1016.9
20260905155007 24 97 4.8 11.3 0.00 0.00 0.00 79 1016.9
20260905154514 24 24 3.2 12.9 0.00 0.00 0.00 80 1016.8
20260905154006 23 94 3.2 12.9 0.00 0.00 0.00 80 1016.8
20260905153508 24 95 1.6 6.4 0.00 0.00 0.00 80 1016.8
20260905153015 24 337 1.6 8.0 0.00 0.00 0.00 81 1016.8
20260905152509 24 46 3.2 8.0 0.00 0.08 0.00 80 1016.7
20260905152012 24 178 1.6 9.7 0.00 0.43 0.00 81 1016.7
20260905151516 23 35 1.6 9.7 0.00 0.89 0.00 81 1016.6
20260905151010 24 66 4.8 12.9 0.00 1.02 0.00 80 1016.6
20260905150507 24 88 3.2 12.9 0.00 1.02 0.00 79 1016.6
20260905150022 24 82 1.6 12.9 0.00 1.02 0.00 80 1016.5
20260905145512 23 88 4.8 12.9 0.00 1.02 0.00 85 1016.4
20260905145007 22 66 1.6 16.1 0.00 1.02 0.00 86 1016.4
20260905144537 22 60 6.4 16.1 0.00 1.02 0.00 87 1016.4
20260905144012 22 133 3.2 14.5 0.00 1.02 0.00 87 1016.4
20260905143507 22 111 4.8 19.3 0.00 1.02 0.00 87 1016.3
20260905143022 22 71 11.3 19.3 0.00 1.02 0.00 87 1016.2
20260905142509 22 71 6.4 17.7 0.00 1.02 0.00 87 1016.0
20260905142012 22 50 11.3 17.7 0.00 1.02 0.00 87 1016.0
20260905141530 22 44 6.4 12.9 0.00 1.02 0.00 87 1015.9
20260905141014 22 52 4.8 12.9 0.00 1.07 0.00 87 1015.9
20260905140509 22 59 6.4 12.9 0.00 1.14 0.00 87 1015.9
20260905140022 22 352 3.2 19.3 0.00 1.14 0.00 87 1015.9
20260905135507 22 21 9.7 19.3 0.00 1.14 0.00 86 1015.8
20260905135011 22 84 4.8 9.7 0.00 1.14 0.00 86 1015.9
20260905134520 22 131 1.6 16.1 0.00 1.14 0.00 87 1015.9
20260905134011 22 93 4.8 16.1 0.00 1.14 0.00 88 1016.0
20260905133512 22 76 4.8 14.5 0.00 1.14 0.00 88 1016.0
20260905133029 22 53 3.2 11.3 0.00 1.14 0.00 88 1015.9
20260905132513 22 46 4.8 11.3 0.00 1.14 0.00 88 1016.1
20260905132012 22 360 6.4 12.9 0.00 1.14 0.00 88 1016.0
20260905131507 22 84 3.2 12.9 0.00 1.14 0.00 89 1016.2